sat.trackr.live / text

‹ back to catalog

STARLINK-35914

NORAD 66532 · 2025-265S

PAYLOAD ACTIVE UNKNOWN

§ Identity

Operator
Country
US
Launch date
2025-11-19
Launch site
AFETR
Launch vehicle
Mass (kg)
RCS (m²)

Purposes: comms

External: N2YO · Heavens-Above · Gunter

§ Orbital elements

Epoch: 2026-09-20T16:27:10.148832Z

Period
94.27 min
Inclination
42.9994°
Eccentricity
0.0001301
Mean motion
15.27583223 rev/d
Perigee alt
482.1 km
Apogee alt
483.9 km
Semi-major
6,861.2 km
B*
6.0071e-4
RAAN
256.8636°
Arg perigee
270.7416°
Mean anomaly
89.3286°
Rev number
4,693

§ Raw data

STARLINK-359141 66532U 25265S   26263.68553413  .00016306  00000+0  60071-3 0  99982 66532  42.9994 256.8636 0001301 270.7416  89.3286 15.27583223 46935

JSON: /api/v1/satellites/66532 · /tle

For live sub-satellite position, see the globe view (requires WebGL).

§ Visibility from observer

Set your observer location to see the next 7 days of passes ≥ 10°. The values pass through the URL so the page stays shareable.

No JS? Fill the form by hand. The geolocation button needs JavaScript.